sat.trackr.live / text

‹ back to catalog

STARLINK-3524

NORAD 51721 · 2022-016H

PAYLOAD ACTIVE UNKNOWN

§ Identity

Operator
Country
US
Launch date
2022-02-21
Launch site
AFETR
Launch vehicle
Mass (kg)
RCS (m²)

Purposes: comms

External: N2YO · Heavens-Above · Gunter

§ Orbital elements

Epoch: 2026-05-24T20:08:34.171296Z

Period
95.44 min
Inclination
53.2136°
Eccentricity
0.0001305
Mean motion
15.08838081 rev/d
Perigee alt
538.8 km
Apogee alt
540.7 km
Semi-major
6,917.9 km
B*
2.0334e-5
RAAN
347.2824°
Arg perigee
75.9833°
Mean anomaly
284.1304°
Rev number
23,492

§ Raw data

STARLINK-35241 51721U 22016H   26144.83928439  .00000036  00000+0  20334-4 0  99942 51721  53.2136 347.2824 0001305  75.9833 284.1304 15.08838081234926

JSON: /api/v1/satellites/51721 · /tle

For live sub-satellite position, see the globe view (requires WebGL).

§ Visibility from observer

Set your observer location to see the next 7 days of passes ≥ 10°. The values pass through the URL so the page stays shareable.

No JS? Fill the form by hand. The geolocation button needs JavaScript.